Find Starlink 4021

NORAD ID: 53149 Int'l Des: 2022-083 Owner: SPXS Country: US Constellation: starlink operational
LEOCIRCULAR

当前视图

正在加载3D地球...

About Starlink 4021

Starlink 4021 (NORAD 53149) is a starlink constellation satellite (v1.5) launched Jul 17, 2022 by SPXS of US. It operates in LEO, CIRCULAR orbit with a mass of 297.00 kg.

即将过境

Passes for default location (London). Set your location on the main map for personalized predictions.

高度历史

Loading altitude history...

两行轨道根数

1 53149U 22083T 26254.71799561 .00000327 00000-0 20821-4 0 9990
2 53149 53.1620 36.5906 0001134 76.1865 283.9264 15.34384044229612
Epoch: Sep 11, 2026 • Age: 14 hours

当前状态

高度 465.3 km
远地点 / 近地点 N/A
速度 7.64 km/s
星下点 38.08°N, 34.58°W
发射日期 Jul 17, 2022
运行时间 4.1 years
类型 internet

技术详情

分类 Payload
质量 297.00 kg
干质量 275.00 kg
总质量 297.00 kg
长度 0.20 m
直径 2.80 m
跨度 9.00 m
形状 Box + pan
制造商 SPXS
平台类型 Starlink
阶段状态 In Orbit
所有者/国家 SPXS/US

Most Searched